This is the latest recevied weather packets stored in our database for station/object SK4BW-10. If no packets are shown the sender has not sent any weather packets the latest 10 day(s).
| Time | Temp. | Humidity | Pressure | Rain* | Wind** | Luminosity | Snow |
|---|---|---|---|---|---|---|---|
| 1778097623 | 8.89° C | 31% | 1010 hPa | - | - | - | - |
| 1778097620 | 9.44° C | 30% | 1010 hPa | - | - | - | - |
| 1778096723 | 8.89° C | 32% | 1009.9 hPa | - | - | - | - |
| 1778096719 | 8.89° C | 31% | 1010 hPa | - | - | - | - |
| 1778095825 | 8.89° C | 35% | 1009.9 hPa | - | - | - | - |
| 1778095818 | 8.89° C | 32% | 1009.9 hPa | - | - | - | - |
| 1778094920 | 10° C | 30% | 1010 hPa | - | - | - | - |
| 1778094917 | 8.89° C | 35% | 1009.9 hPa | - | - | - | - |
| 1778094020 | 8.89° C | 34% | 1009.9 hPa | - | - | - | - |
| 1778094016 | 10° C | 30% | 1010 hPa | - | - | - | - |
| 1778093119 | 8.33° C | 32% | 1009.9 hPa | - | - | - | - |
| 1778093116 | 8.89° C | 34% | 1009.9 hPa | - | - | - | - |
| 1778092218 | 8.33° C | 30% | 1009.8 hPa | - | - | - | - |
| 1778092215 | 8.33° C | 32% | 1009.9 hPa | - | - | - | - |
| 1778091317 | 8.33° C | 30% | 1009.7 hPa | - | - | - | - |
| 1778091314 | 8.33° C | 30% | 1009.8 hPa | - | - | - | - |
| 1778090419 | 8.89° C | 29% | 1009.8 hPa | - | - | - | - |
| 1778090413 | 8.33° C | 30% | 1009.7 hPa | - | - | - | - |
| 1778089516 | 9.44° C | 31% | 1009.8 hPa | - | - | - | - |
| 1778089513 | 8.89° C | 29% | 1009.8 hPa | - | - | - | - |
| 1778088616 | 9.44° C | 27% | 1009.6 hPa | - | - | - | - |
| 1778088612 | 9.44° C | 31% | 1009.8 hPa | - | - | - | - |
| 1778087711 | 9.44° C | 27% | 1009.6 hPa | - | - | - | - |
| 1778086816 | 10° C | 28% | 1009.8 hPa | - | - | - | - |
| 1778086811 | 9.44° C | 27% | 1009.6 hPa | - | - | - | - |
* Rain since midnight (hover to see other rain measurements)
** Current wind speed in m/s (hover to see current wind gust speed)